K9BM Weather Reports


time (UTC)temp
C
wind
direction
speed
KPH
gust
KPH
rain 1hr
cm
rain 24hr
cm
rain mn
cm
humidity
%
barometer
mb
20260902142005 15 271 4.8 11.3 0.00 0.00 0.00 61 1002.6
20260902141505 15 268 6.4 11.3 0.00 0.00 0.00 61 1002.5
20260902141006 15 282 8.0 11.3 0.00 0.00 0.00 61 1002.5
20260902140005 15 264 1.6 12.9 0.00 0.00 0.00 61 1002.6
20260902135507 15 264 4.8 14.5 0.00 0.00 0.00 61 1002.7
20260902135005 15 255 8.0 16.1 0.00 0.00 0.00 60 1002.8
20260902134505 15 248 9.7 16.1 0.00 0.00 0.00 60 1002.9
20260902134006 16 261 11.3 14.5 0.00 0.00 0.00 60 1002.8
20260902133005 15 266 9.7 14.5 0.00 0.00 0.00 61 1002.6
20260902132505 15 273 9.7 12.9 0.00 0.00 0.00 63 1002.6
20260902132006 14 178 4.8 11.3 0.00 0.00 0.00 65 1002.4
20260902131006 13 167 8.0 11.3 0.00 0.00 0.00 66 1002.4
20260902130005 13 240 4.8 14.5 0.00 0.00 0.00 65 1002.4
20260902125506 13 246 11.3 14.5 0.00 0.00 0.00 65 1002.5
20260902125005 13 259 11.3 16.1 0.00 0.00 0.00 65 1002.7
20260902124505 14 257 11.3 19.3 0.00 0.00 0.00 64 1002.8
20260902124005 14 254 12.9 19.3 0.00 0.00 0.00 63 1002.9
20260902123505 15 260 16.1 19.3 0.00 0.00 0.00 62 1003.0
20260902122505 14 262 12.9 19.3 0.00 0.00 0.00 62 1002.8
20260902121506 14 257 11.3 19.3 0.00 0.00 0.00 62 1002.9
20260902121005 14 243 16.1 19.3 0.00 0.00 0.00 61 1003.1
20260902115505 15 239 11.3 16.1 0.00 0.00 0.00 59 1003.1
20260902115005 15 240 9.7 14.5 0.00 0.00 0.00 59 1003.3
20260902114506 15 232 9.7 14.5 0.00 0.00 0.00 59 1003.2
20260902114006 15 231 9.7 19.3 0.00 0.00 0.00 58 1003.1
20260902113506 16 235 9.7 19.3 0.00 0.00 0.00 58 1003.2
20260902113006 15 243 14.5 19.3 0.00 0.00 0.00 58 1003.2
20260902112505 16 245 12.9 16.1 0.00 0.00 0.00 58 1003.2
20260902111505 16 244 9.7 14.5 0.00 0.00 0.00 57 1003.2
20260902111005 16 257 9.7 14.5 0.00 0.00 0.00 57 1003.3
20260902110007 16 239 6.4 14.5 0.00 0.00 0.00 58 1003.5
20260902105505 16 193 11.3 16.1 0.00 0.00 0.00 58 1003.5
20260902105006 16 199 8.0 19.3 0.00 0.00 0.00 58 1003.5
20260902104506 16 231 9.7 20.9 0.00 0.00 0.00 58 1003.6
20260902104005 16 236 12.9 20.9 0.00 0.00 0.00 58 1003.7
20260902103505 16 231 12.9 19.3 0.00 0.00 0.00 58 1003.9
20260902103005 16 232 9.7 16.1 0.00 0.00 0.00 58 1003.9
20260902102505 16 230 9.7 19.3 0.00 0.00 0.00 58 1003.8
20260902102006 16 230 11.3 19.3 0.00 0.00 0.00 57 1004.1
20260902101505 16 231 11.3 19.3 0.00 0.00 0.00 57 1004.0
20260902101006 16 232 11.3 22.5 0.00 0.00 0.00 57 1004.0
20260902100005 17 237 14.5 35.4 0.00 0.00 0.00 55 1004.3
20260902095505 17 241 20.9 35.4 0.00 0.00 0.00 53 1004.2
20260902095005 17 234 16.1 29.0 0.00 0.00 0.00 52 1004.2
20260902094505 17 233 17.7 29.0 0.00 0.00 0.00 52 1004.2
20260902094005 17 235 16.1 27.4 0.00 0.00 0.00 51 1004.1
20260902093505 17 246 16.1 32.2 0.00 0.00 0.00 51 1004.2
20260902093005 17 248 25.7 32.2 0.00 0.00 0.00 52 1004.4
20260902092505 17 253 20.9 25.7 0.00 0.00 0.00 52 1004.3
20260902092005 17 267 17.7 24.1 0.00 0.00 0.00 53 1004.3
20260902091505 17 278 14.5 22.5 0.00 0.00 0.00 52 1004.1
20260902091005 17 283 12.9 20.9 0.00 0.00 0.00 51 1004.1
20260902090005 18 264 19.3 29.0 0.00 0.00 0.00 49 1004.1
20260902085505 17 267 14.5 24.1 0.00 0.00 0.00 51 1004.3
20260902085005 17 263 12.9 25.7 0.00 0.00 0.00 54 1004.6
20260902084506 17 269 19.3 25.7 0.00 0.00 0.00 53 1004.7
20260902084006 17 236 12.9 19.3 0.00 0.00 0.00 53 1004.7
20260902083006 17 269 12.9 16.1 0.00 0.00 0.00 55 1004.6
20260902082505 17 283 11.3 16.1 0.00 0.00 0.00 55 1004.6
20260902080005 17 273 14.5 20.9 0.00 0.00 0.00 53 1004.3
20260902075505 17 260 12.9 19.3 0.00 0.00 0.00 54 1004.4
20260902075005 17 266 11.3 22.5 0.00 0.00 0.00 55 1004.5
20260902074505 17 253 11.3 25.7 0.00 0.00 0.00 54 1004.4
20260902074005 17 265 19.3 25.7 0.00 0.00 0.00 54 1004.5
20260902073005 16 244 14.5 19.3 0.00 0.00 0.00 57 1003.9
20260902072505 16 244 12.9 14.5 0.00 0.00 0.00 57 1003.8
20260902072005 16 214 4.8 8.0 0.00 0.00 0.00 56 1003.7
20260902071505 16 208 1.6 9.7 0.00 0.00 0.00 56 1003.7
20260902071005 16 208 8.0 9.7 0.00 0.00 0.00 56 1003.7
20260902070007 16 205 3.2 4.8 0.00 0.00 0.00 58 1003.8
20260902065505 16 204 0.0 4.8 0.00 0.00 0.00 58 1003.9
20260902065005 16 204 3.2 4.8 0.00 0.00 0.00 58 1004.0
20260902064505 16 204 3.2 8.0 0.00 0.00 0.00 58 1003.9
20260902064005 16 204 4.8 9.7 0.00 0.00 0.00 58 1003.9
20260902063005 16 185 4.8 16.1 0.00 0.00 0.00 60 1004.0
20260902062505 15 175 11.3 16.1 0.00 0.00 0.00 60 1004.0
20260902062005 16 164 11.3 16.1 0.00 0.00 0.00 58 1004.0
20260902061505 16 166 12.9 16.1 0.00 0.00 0.00 57 1003.9
20260902061005 16 230 8.0 8.0 0.00 0.00 0.00 57 1003.8
20260902060005 16 234 6.4 9.7 0.00 0.00 0.00 56 1003.8
20260902055505 16 237 4.8 9.7 0.00 0.00 0.00 55 1003.8
20260902055005 16 223 9.7 9.7 0.00 0.00 0.00 56 1003.9
20260902054506 16 180 4.8 4.8 0.00 0.00 0.00 55 1004.0
20260902054005 16 179 3.2 9.7 0.00 0.00 0.00 55 1004.0
20260902053005 17 179 6.4 8.0 0.00 0.00 0.00 52 1004.2
20260902052505 17 178 3.2 8.0 0.00 0.00 0.00 52 1004.2
20260902052006 17 177 4.8 8.0 0.00 0.00 0.00 52 1004.3
20260902051505 17 177 4.8 9.7 0.00 0.00 0.00 52 1004.2
20260902051006 17 176 4.8 12.9 0.00 0.00 0.00 52 1004.3
20260902050007 17 146 4.8 8.0 0.00 0.00 0.00 52 1004.1
20260902045005 18 234 4.8 8.0 0.00 0.00 0.00 51 1004.0
20260902044505 18 234 6.4 9.7 0.00 0.00 0.00 50 1004.1
20260902044005 18 229 8.0 9.7 0.00 0.00 0.00 50 1004.1
20260902043505 18 230 8.0 9.7 0.00 0.00 0.00 50 1004.1
20260902043006 18 226 8.0 9.7 0.00 0.00 0.00 51 1004.1
20260902042505 18 227 6.4 12.9 0.00 0.00 0.00 51 1004.1
20260902042005 18 202 8.0 12.9 0.00 0.00 0.00 51 1004.0
20260902041505 18 200 9.7 12.9 0.00 0.00 0.00 51 1004.1
20260902041005 18 199 9.7 14.5 0.00 0.00 0.00 51 1004.0
20260902040005 18 198 11.3 14.5 0.00 0.00 0.00 51 1004.1
20260902035505 18 200 9.7 14.5 0.00 0.00 0.00 51 1004.2
20260902035005 18 200 8.0 12.9 0.00 0.00 0.00 52 1004.3
20260902034506 18 203 8.0 12.9 0.00 0.00 0.00 52 1004.3
20260902034005 18 204 6.4 9.7 0.00 0.00 0.00 52 1004.4
20260902033505 18 216 4.8 11.3 0.00 0.00 0.00 51 1004.4
20260902033005 18 211 8.0 11.3 0.00 0.00 0.00 51 1004.4
20260902032005 18 206 4.8 11.3 0.00 0.00 0.00 50 1004.3
20260902031505 18 199 8.0 11.3 0.00 0.00 0.00 50 1004.3
20260902031005 19 223 4.8 11.3 0.00 0.00 0.00 49 1004.3
20260902030005 19 212 8.0 14.5 0.00 0.00 0.00 48 1004.2
20260902025505 20 196 11.3 14.5 0.00 0.00 0.00 48 1004.2
20260902025005 20 203 6.4 11.3 0.00 0.00 0.00 47 1004.2
20260902024505 20 213 9.7 11.3 0.00 0.00 0.00 47 1004.2
20260902024005 20 235 8.0 14.5 0.00 0.00 0.00 47 1004.2
20260902023505 20 231 9.7 14.5 0.00 0.00 0.00 46 1004.1
20260902023005 20 231 8.0 12.9 0.00 0.00 0.00 46 1004.1
20260902022005 20 232 6.4 11.3 0.00 0.00 0.00 45 1003.8
20260902021505 20 223 6.4 11.3 0.00 0.00 0.00 45 1003.7
20260902021005 21 196 6.4 11.3 0.00 0.00 0.00 44 1003.5
20260902020005 21 228 3.2 8.0 0.00 0.00 0.00 44 1003.4
20260902015504 22 240 1.6 8.0 0.00 0.00 0.00 44 1003.4
20260902015005 22 314 0.0 4.8 0.00 0.00 0.00 44 1003.3
20260902014505 22 314 1.6 4.8 0.00 0.00 0.00 43 1003.4
20260902014005 22 314 3.2 4.8 0.00 0.00 0.00 43 1003.4
20260902013505 22 314 3.2 8.0 0.00 0.00 0.00 42 1003.4
20260902013005 23 314 4.8 8.0 0.00 0.00 0.00 41 1003.4
20260902012505 23 314 4.8 8.0 0.00 0.00 0.00 39 1003.4
20260902012005 24 314 4.8 4.8 0.00 0.00 0.00 37 1003.4
20260902011505 25 315 0.0 4.8 0.00 0.00 0.00 35 1003.5
20260902011005 25 315 1.6 9.7 0.00 0.00 0.00 34 1003.5
20260902010005 26 315 6.4 9.7 0.00 0.00 0.00 33 1003.6
20260902005505 27 183 3.2 8.0 0.00 0.00 0.00 31 1003.6
20260902004505 26 181 4.8 9.7 0.00 0.00 0.00 30 1003.6
20260902004005 26 163 1.6 11.3 0.00 0.00 0.00 31 1003.6
20260902002505 26 193 4.8 11.3 0.00 0.00 0.00 30 1003.6
20260902002005 26 195 8.0 14.5 0.00 0.00 0.00 31 1003.5
20260902001505 26 190 9.7 14.5 0.00 0.00 0.00 31 1003.7
20260902001005 26 202 8.0 12.9 0.00 0.00 0.00 30 1003.7
20260902000005 26 172 4.8 19.3 0.00 0.00 0.00 31 1003.8
20260901235504 26 141 11.3 20.9 0.00 0.00 0.00 32 1003.8
20260901234505 26 131 4.8 19.3 0.00 0.00 0.00 31 1003.9
20260901234005 26 121 11.3 20.9 0.00 0.00 0.00 32 1003.9
20260901233505 26 139 6.4 20.9 0.00 0.00 0.00 32 1003.9
20260901233005 26 144 11.3 19.3 0.00 0.00 0.00 32 1003.9
20260901232505 26 145 9.7 19.3 0.00 0.00 0.00 32 1004.0
20260901232005 26 150 3.2 20.9 0.00 0.00 0.00 33 1004.0
20260901231505 26 160 6.4 20.9 0.00 0.00 0.00 32 1004.1
20260901231005 26 130 11.3 16.1 0.00 0.00 0.00 33 1004.1
20260901230005 26 152 0.0 9.7 0.00 0.00 0.00 33 1004.4
20260901225504 26 141 1.6 19.3 0.00 0.00 0.00 33 1004.4
20260901225005 26 144 8.0 25.7 0.00 0.00 0.00 32 1004.5
20260901224005 26 158 12.9 19.3 0.00 0.00 0.00 33 1004.5
20260901223504 26 195 9.7 22.5 0.00 0.00 0.00 33 1004.7
20260901223006 25 171 9.7 22.5 0.00 0.00 0.00 34 1004.7
20260901222505 25 172 8.0 14.5 0.00 0.00 0.00 35 1004.7
20260901222005 24 158 3.2 12.9 0.00 0.00 0.00 37 1004.7
20260901221005 23 222 3.2 16.1 0.00 0.00 0.00 42 1004.8
20260901220005 23 247 11.3 16.1 0.00 0.00 0.00 40 1005.0
20260901215504 23 271 9.7 19.3 0.00 0.00 0.00 40 1005.0
20260901215004 23 266 11.3 20.9 0.00 0.00 0.00 40 1005.0
20260901214505 23 273 14.5 20.9 0.00 0.00 0.00 40 1005.0
20260901213505 23 271 14.5 22.5 0.00 0.00 0.00 38 1005.2
20260901213005 24 273 16.1 22.5 0.00 0.00 0.00 36 1005.2
20260901212505 24 257 12.9 20.9 0.00 0.00 0.00 36 1005.3
20260901211505 24 281 9.7 20.9 0.00 0.00 0.00 37 1005.3
20260901211005 24 266 14.5 20.9 0.00 0.00 0.00 37 1005.4
20260901210005 24 273 11.3 19.3 0.00 0.00 0.00 36 1005.5
20260901205504 24 275 11.3 19.3 0.00 0.00 0.00 37 1005.5
20260901205005 23 252 12.9 19.3 0.00 0.00 0.00 36 1005.5
20260901204505 23 287 12.9 20.9 0.00 0.00 0.00 37 1005.5
20260901204005 24 292 14.5 20.9 0.00 0.00 0.00 37 1005.4
20260901203505 23 261 11.3 19.3 0.00 0.00 0.00 38 1005.5
20260901203005 23 272 11.3 20.9 0.00 0.00 0.00 39 1005.5
20260901202505 23 270 14.5 22.5 0.00 0.00 0.00 39 1005.6
20260901201505 23 272 19.3 24.1 0.00 0.00 0.00 40 1005.7
20260901201004 23 273 17.7 24.1 0.00 0.00 0.00 40 1005.8
20260901200005 23 283 17.7 24.1 0.00 0.00 0.00 42 1005.9
20260901195005 22 273 16.1 24.1 0.00 0.00 0.00 42 1006.1
20260901194504 22 269 19.3 25.7 0.00 0.00 0.00 44 1006.2
20260901194005 22 277 19.3 25.7 0.00 0.00 0.00 43 1006.2
20260901193505 22 270 19.3 25.7 0.00 0.00 0.00 44 1006.3
20260901193004 22 263 16.1 22.5 0.00 0.00 0.00 44 1006.4
20260901192505 22 273 12.9 24.1 0.00 0.00 0.00 45 1006.5
20260901192005 21 279 16.1 24.1 0.00 0.00 0.00 45 1006.6
20260901191505 21 273 16.1 24.1 0.00 0.00 0.00 46 1006.6
20260901191005 21 281 16.1 22.5 0.00 0.00 0.00 45 1006.8
20260901185505 21 271 17.7 24.1 0.00 0.00 0.00 46 1007.1
20260901184505 21 271 19.3 25.7 0.00 0.00 0.00 46 1007.1
20260901184005 21 283 16.1 25.7 0.00 0.00 0.00 45 1007.2
20260901183504 21 281 19.3 27.4 0.00 0.00 0.00 44 1007.3
20260901183005 21 272 14.5 32.2 0.00 0.00 0.00 43 1007.2
20260901182504 21 276 20.9 32.2 0.00 0.00 0.00 42 1007.2
20260901182004 21 282 19.3 32.2 0.00 0.00 0.00 43 1007.3
20260901181504 21 283 19.3 32.2 0.00 0.00 0.00 43 1007.3
20260901180005 21 285 20.9 32.2 0.00 0.00 0.00 44 1007.3
20260901175504 21 277 22.5 35.4 0.00 0.00 0.00 42 1007.4
20260901175004 21 277 25.7 35.4 0.00 0.00 0.00 42 1007.4
20260901174504 21 278 19.3 32.2 0.00 0.00 0.00 44 1007.5
20260901174007 21 272 20.9 32.2 0.00 0.00 0.00 44 1007.5
20260901173504 20 273 22.5 32.2 0.00 0.00 0.00 46 1007.5
20260901173005 20 270 22.5 29.0 0.00 0.00 0.00 48 1007.5
20260901172505 20 278 19.3 29.0 0.00 0.00 0.00 48 1007.6
20260901172005 20 268 19.3 32.2 0.00 0.00 0.00 49 1007.6
20260901171505 19 257 20.9 32.2 0.00 0.00 0.00 49 1007.6
20260901171004 19 255 20.9 32.2 0.00 0.00 0.00 50 1007.7
20260901170005 18 257 20.9 32.2 0.00 0.00 0.00 49 1007.7
20260901165504 18 255 19.3 24.1 0.00 0.00 0.00 47 1007.6
20260901165004 18 262 14.5 22.5 0.00 0.00 0.00 45 1007.7
20260901164504 18 243 11.3 19.3 0.00 0.00 0.00 46 1007.7
20260901164004 18 255 14.5 19.3 0.00 0.00 0.00 45 1007.6
20260901163504 18 273 11.3 19.3 0.00 0.00 0.00 44 1007.5
20260901162504 18 245 16.1 22.5 0.00 0.00 0.00 43 1007.4
20260901161505 17 242 16.1 22.5 0.00 0.00 0.00 45 1007.4
20260901161005 17 261 14.5 19.3 0.00 0.00 0.00 42 1007.4
20260901160004 16 253 14.5 24.1 0.00 0.00 0.00 43 1007.4
20260901155005 15 250 17.7 22.5 0.00 0.00 0.00 47 1007.4
20260901154505 14 264 16.1 19.3 0.00 0.00 0.00 50 1007.5
20260901154005 14 275 8.0 12.9 0.00 0.00 0.00 50 1007.6
20260901153004 16 240 4.8 20.9 0.00 0.00 0.00 53 1007.9
20260901151504 16 275 14.5 20.9 0.00 0.00 0.00 49 1007.3
20260901151004 16 274 9.7 14.5 0.00 0.00 0.00 44 1007.5
20260901150005 16 247 9.7 16.1 0.00 0.00 0.00 44 1007.8
20260901145505 15 248 11.3 16.1 0.00 0.00 0.00 44 1008.0
20260901145004 15 246 11.3 16.1 0.00 0.00 0.00 44 1007.9
20260901144505 15 259 11.3 14.5 0.00 0.00 0.00 45 1007.9
20260901143504 15 244 8.0 9.7 0.00 0.00 0.00 48 1008.1
20260901143004 14 237 8.0 9.7 0.00 0.00 0.00 49 1008.1
20260901142504 14 227 4.8 8.0 0.00 0.00 0.00 49 1008.1